Terug naar catalogus

IRIDIUM 133

ActiefCommunicatiePO
NORAD 42955·PAYLOAD·🇺🇸 United States

Gelanceerd Oct 9, 2017 vanaf Vandenberg Space Force Base

Loading…

Volgende Passages (komende 24 uur)

TLE

VersSource: CelesTrak SupGP

Epoch: Sep 14, 2026, 22:03 UTC

1 42955C 17061A   26257.91909722 -.00001545  00000+0 -55233-3 0  2575
2 42955  86.4028 347.7737 0002157  95.9030  36.7786 14.34219274    19

Volg IRIDIUM 133 in realtime met AllMySat

Download on the App Store